{"data":{"norad_id":60113,"epoch":"2026-05-25T04:27:43.430112Z","epoch_age_seconds":55798,"freshness":"FRESH","line1":"1 60113U 24118A   26145.18591933  .00005623  00000+0  51229-4 0  9992","line2":"2 60113  53.1589 204.4779 0001141  67.2691 292.8447 15.69715759110008","mean_motion":15.69715759,"eccentricity":0.0001141,"inclination_deg":53.1589,"raan_deg":204.4779,"arg_perigee_deg":67.2691,"mean_anomaly_deg":292.8447,"bstar":5.1229e-5,"rev_number":11000,"period_min":91.736353651528,"perigee_km":358.94148204304,"apogee_km":360.47905879015,"semimajor_km":6737.8472704166,"source":"CELESTRAK","updated_at":"2026-05-25T13:38:19.164901Z"}}